Home   Weather   43°09'N, 88°01'W   Past weeks
Flag for USA

Past Weather in 43°09'N, 88°01'W, USA — Yesterday and Last 2 Weeks

Now
48 °F

Sunny.


Feels Like: 43 °F
Forecast: 47 / 30 °F
Wind: 14 mph from Southwest

Location: Milwaukee / Timmerman

Current Time: Mar 19, 2019 at 4:36:47 pm

Latest Report: Mar 19, 2019 at 3:45 pm


Visibility: 10 mi

Pressure: 30.29 "Hg

Humidity: 29%

Dew Point: 18 °F

Location of 43°09'N, 88°01'WLocation

Past Weather in 43°09'N, 88°01'W — Graph

°F

43°09'N, 88°01'W Temperature Yesterday

Maximum temperature yesterday: 39 °F (at 12:45 pm)
Minimum temperature yesterday: 25 °F (at 7:00 am)
Average temperature yesterday: 31 °F

High & Low Weather Summary for the Past Weeks

 TemperatureHumidityPressure
High57 °F (Mar 14, 11:45 am)93% (Mar 8, 11:15 pm)30.41 "Hg (Mar 8, 11:15 pm)
Low3 °F (Mar 6, 6:15 am)27% (Mar 19, 12:45 pm)29.26 "Hg (Mar 14, 2:45 pm)
Average27 °F69%30.10 "Hg
* Reported Mar 4 1:45 pm — Mar 19 2:45 pm, 43°09'N, 88°01'W. Weather by CustomWeather, © 2019

Note: Actual official high and low records may vary slightly from our data, if they occured in-between our weather recording intervals... More about our weather records

Advertising

43°09'N, 88°01'W Weather History for the Previous 24 Hours

Scroll right to see more
 ConditionsComfort  
Time TempWeatherWind HumidityBarometerVisibility
2:45 pm
Tue, Mar 19
48 °FSunny.9 mph29%30.31 "Hg10 mi
1:45 pm46 °FSunny.10 mph27%30.34 "Hg10 mi
12:45 pm45 °FSunny.13 mph27%30.36 "Hg10 mi
11:45 am45 °FSunny.13 mph31%30.37 "Hg10 mi
10:45 am41 °FSunny.6 mph45%30.38 "Hg10 mi
9:45 am37 °FSunny.6 mph65%30.37 "Hg10 mi
8:45 am34 °FSunny.7 mph70%30.37 "Hg10 mi
7:45 am27 °FSunny.No wind80%30.35 "Hg10 mi
7:15 am27 °FSunny.No wind80%30.36 "Hg10 mi
7:00 am27 °FSunny.No wind80%30.35 "Hg10 mi
6:35 am28 °FClear.No wind74%30.35 "Hg10 mi
6:15 am28 °FClear.3 mph74%30.35 "Hg10 mi
5:55 am28 °FClear.No wind74%30.34 "Hg10 mi
5:35 am27 °FClear.3 mph80%30.34 "Hg10 mi
5:15 am27 °FClear.5 mph74%30.34 "Hg10 mi
4:55 am28 °FClear.3 mph74%30.34 "Hg10 mi
4:35 am27 °FClear.No wind80%30.34 "Hg10 mi
4:15 am28 °FClear.5 mph74%30.34 "Hg10 mi
3:55 am28 °FClear.6 mph74%30.34 "Hg10 mi
3:35 am28 °FClear.5 mph74%30.34 "Hg10 mi
3:15 am28 °FClear.No wind80%30.34 "Hg7 mi
2:35 am28 °FPassing clouds.No wind74%30.35 "Hg10 mi
2:15 am28 °FPassing clouds.No wind74%30.35 "Hg10 mi
1:55 am28 °FClear.No wind74%30.35 "Hg10 mi
1:35 am28 °FClear.No wind74%30.34 "Hg10 mi
1:15 am28 °FClear.No wind74%30.35 "Hg10 mi
12:55 am28 °FClear.No wind74%30.35 "Hg10 mi
12:35 am27 °FClear.3 mph80%30.35 "Hg10 mi
12:15 am30 °FClear.No wind75%30.35 "Hg10 mi
11:55 pm
Mon, Mar 18
30 °FClear.No wind69%30.35 "Hg10 mi
11:35 pm30 °FClear.No wind75%30.35 "Hg10 mi
11:15 pm30 °FClear.No wind75%30.35 "Hg10 mi
10:55 pm30 °FClear.3 mph75%30.34 "Hg10 mi
10:35 pm28 °FClear.No wind74%30.34 "Hg10 mi
10:15 pm32 °FClear.No wind64%30.34 "Hg10 mi
9:55 pm30 °FClear.No wind69%30.34 "Hg10 mi
9:35 pm32 °FClear.No wind64%30.34 "Hg10 mi
9:15 pm32 °FClear.No wind64%30.33 "Hg10 mi
8:55 pm32 °FClear.No wind64%30.33 "Hg10 mi
7:45 pm36 °FClear.No wind56%30.33 "Hg10 mi
6:45 pm37 °FSunny.5 mph52%30.32 "Hg10 mi
5:45 pm39 °FScattered clouds.5 mph48%30.32 "Hg10 mi
4:45 pm39 °FScattered clouds.7 mph45%30.32 "Hg10 mi
Weather by CustomWeather, © 2019

See weather overview